Change the Weather History Date:

Saturday, April 27, 2013

  Actual Average Record
Temperature  
Mean Temperature 56 °F -  
Max Temperature 69 °F 67 °F 91 °F (1981)
Min Temperature 44 °F 41 °F 28 °F (2004)
Degree Days  
Heating Degree Days 8    
Growing Degree Days 6 (Base 50)    
Moisture  
Dew Point 46 °F    
Average Humidity 72    
Maximum Humidity 93    
Minimum Humidity 43    
Precipitation  
Precipitation 0.00 in - - ()
Sea Level Pressure  
Sea Level Pressure 30.09 in    
Wind  
Wind Speed 8 mph (SSW)    
Max Wind Speed 13 mph    
Max Gust Speed 17 mph    
Visibility 9 miles    
Events      
Averages and records for this station are not official NWS values.
T = Trace of Precipitation, MM = Missing Value Source: NWS Daily Summary

Daily Weather History Graph

Daily Weather History Graph

Search for Another Location

Airport or City:

Trip Planner

Search our weather history database for the weather conditions in past years. The results will help you decide how hot, cold, wet, or windy it might be!

Date:

Astronomy

Apr. 27, 2013 Rise Set
Actual Time 6:16 AM CDT 8:12 PM CDT
Civil Twilight 5:46 AM CDT 8:43 PM CDT
Nautical Twilight 5:09 AM CDT 9:20 PM CDT
Astronomical Twilight 4:29 AM CDT 10:00 PM CDT
Moon 10:45 PM CDT (4/27) 7:34 AM CDT (4/27)
Length of Visible Light 14h 56m
Length of Day
13h 55m
Waning Gibbous, 95% of the Moon is Illuminated
Apr 27
Waning Gibbous
May 2
Last Quarter
May 9
New
May 17
First Quarter
May 24
Full

Hourly Weather History & Observations

Time (CDT) Temp. Windchill Dew Point Humidity Pressure Visibility Wind Dir Wind Speed Gust Speed Precip Events Conditions
12:15 AM 51.8 °F - 46.4 °F 82% 30.18 in 10.0 mi SSW 8.1 mph - N/A   Unknown
12:35 AM 51.8 °F - 44.6 °F 76% 30.19 in 10.0 mi SSW 8.1 mph - N/A   Unknown
12:55 AM 50.0 °F - 44.6 °F 82% 30.19 in 10.0 mi SSW 6.9 mph - N/A   Unknown
1:15 AM 48.2 °F - 44.6 °F 87% 30.19 in 10.0 mi SSW 8.1 mph - N/A   Unknown
1:35 AM 50.0 °F - 44.6 °F 82% 30.19 in 10.0 mi SSW 6.9 mph - N/A   Unknown
1:55 AM 48.2 °F - 44.6 °F 87% 30.19 in 10.0 mi SSW 8.1 mph - N/A   Unknown
2:15 AM 48.2 °F - 44.6 °F 87% 30.18 in 10.0 mi South 9.2 mph - N/A   Unknown
2:35 AM 48.2 °F - 42.8 °F 82% 30.17 in 10.0 mi South 9.2 mph - N/A   Unknown
2:55 AM 46.4 °F 41.9 °F 42.8 °F 87% 30.16 in 10.0 mi SSW 9.2 mph - N/A   Unknown
3:15 AM 46.4 °F 42.9 °F 42.8 °F 87% 30.16 in 10.0 mi SSW 6.9 mph - N/A   Unknown
3:35 AM 46.4 °F 41.9 °F 42.8 °F 87% 30.15 in 10.0 mi South 9.2 mph - N/A   Unknown
3:55 AM 46.4 °F 41.9 °F 42.8 °F 87% 30.16 in 10.0 mi SSW 9.2 mph - N/A   Unknown
4:15 AM 46.4 °F 41.9 °F 42.8 °F 87% 30.15 in 10.0 mi SSW 9.2 mph - N/A   Unknown
4:35 AM 46.4 °F 41.9 °F 42.8 °F 87% 30.15 in 10.0 mi SSW 9.2 mph - N/A   Unknown
4:55 AM 44.6 °F 39.7 °F 42.8 °F 93% 30.15 in 10.0 mi SSW 9.2 mph - N/A   Unknown
5:15 AM 44.6 °F 40.2 °F 42.8 °F 93% 30.15 in 8.0 mi SSW 8.1 mph - N/A   Unknown
5:35 AM 44.6 °F 39.7 °F 42.8 °F 93% 30.15 in 7.0 mi SSW 9.2 mph - N/A   Unknown
5:55 AM 44.6 °F 39.7 °F 42.8 °F 93% 30.15 in 7.0 mi SSW 9.2 mph - N/A   Unknown
6:15 AM 44.6 °F 39.7 °F 42.8 °F 93% 30.15 in 5.0 mi SSW 9.2 mph - N/A   Unknown
6:35 AM 44.6 °F 40.2 °F 41.0 °F 87% 30.15 in 5.0 mi SSW 8.1 mph - N/A   Unknown
6:55 AM 44.6 °F 40.2 °F 41.0 °F 87% 30.15 in 4.0 mi SSW 8.1 mph - N/A   Unknown
7:15 AM 44.6 °F 40.2 °F 42.8 °F 93% 30.15 in 4.0 mi SSW 8.1 mph - N/A   Unknown
7:35 AM 46.4 °F 41.1 °F 42.8 °F 87% 30.15 in 5.0 mi SSW 11.5 mph - N/A   Unknown
7:55 AM 46.4 °F 41.9 °F 44.6 °F 93% 30.16 in 5.0 mi SSW 9.2 mph - N/A   Unknown
8:15 AM 48.2 °F - 44.6 °F 87% 30.15 in 5.0 mi SSW 9.2 mph - N/A   Unknown
8:35 AM 48.2 °F - 44.6 °F 87% 30.15 in 4.0 mi South 10.4 mph - N/A   Unknown
8:55 AM 46.4 °F 41.1 °F 44.6 °F 93% 30.15 in 1.0 mi SSW 11.5 mph - N/A   Unknown
9:15 AM 48.2 °F - 44.6 °F 87% 30.15 in 1.2 mi SSW 11.5 mph - N/A   Unknown
9:35 AM 48.2 °F - 46.4 °F 93% 30.15 in 2.0 mi SSW 10.4 mph - N/A   Unknown
9:55 AM 48.2 °F - 46.4 °F 93% 30.14 in 3.0 mi SSW 10.4 mph - N/A   Unknown
10:15 AM 50.0 °F - 46.4 °F 87% 30.14 in 4.0 mi SW 9.2 mph - N/A   Unknown
10:35 AM 51.8 °F - 46.4 °F 82% 30.14 in 5.0 mi SW 8.1 mph - N/A   Unknown
10:55 AM 51.8 °F - 46.4 °F 82% 30.14 in 6.0 mi SW 9.2 mph - N/A   Unknown
11:15 AM 51.8 °F - 48.2 °F 88% 30.14 in 8.0 mi SSW 9.2 mph - N/A   Unknown
11:35 AM 53.6 °F - 48.2 °F 82% 30.14 in 9.0 mi SSW 6.9 mph - N/A   Unknown
11:55 AM 53.6 °F - 48.2 °F 82% 30.14 in 9.0 mi SW 8.1 mph - N/A   Unknown
12:15 PM 55.4 °F - 48.2 °F 77% 30.14 in 10.0 mi SSW 6.9 mph - N/A   Unknown
12:35 PM 57.2 °F - 50.0 °F 77% 30.13 in 10.0 mi WSW 11.5 mph - N/A   Unknown
12:55 PM 59.0 °F - 50.0 °F 72% 30.12 in 10.0 mi SW 9.2 mph - N/A   Unknown
1:15 PM 60.8 °F - 50.0 °F 68% 30.11 in 10.0 mi SSW 5.8 mph - N/A   Unknown
1:35 PM 62.6 °F - 51.8 °F 68% 30.10 in 10.0 mi SSW 8.1 mph - N/A   Unknown
1:55 PM 64.4 °F - 50.0 °F 59% 30.09 in 10.0 mi SW 9.2 mph - N/A   Unknown
2:15 PM 66.2 °F - 51.8 °F 60% 30.09 in 10.0 mi South 12.7 mph 17.3 mph N/A   Unknown
2:35 PM 66.2 °F - 51.8 °F 60% 30.08 in 10.0 mi SSW 10.4 mph - N/A   Unknown
2:55 PM 66.2 °F - 51.8 °F 60% 30.07 in 10.0 mi SW 6.9 mph - N/A   Unknown
3:15 PM 66.2 °F - 51.8 °F 60% 30.06 in 10.0 mi SSW 8.1 mph - N/A   Unknown
3:35 PM 66.2 °F - 51.8 °F 60% 30.05 in 10.0 mi SSW 10.4 mph - N/A   Unknown
3:55 PM 68.0 °F - 50.0 °F 52% 30.04 in 10.0 mi SW 3.5 mph - N/A   Unknown
4:15 PM 68.0 °F - 50.0 °F 52% 30.03 in 10.0 mi South 4.6 mph - N/A   Unknown
4:35 PM 69.8 °F - 50.0 °F 49% 30.03 in 10.0 mi SSW 6.9 mph - N/A   Unknown
4:55 PM 69.8 °F - 48.2 °F 46% 30.02 in 10.0 mi SW 4.6 mph - N/A   Unknown
5:15 PM 69.8 °F - 48.2 °F 46% 30.01 in 10.0 mi SW 5.8 mph - N/A   Unknown
5:35 PM 69.8 °F - 48.2 °F 46% 30.00 in 10.0 mi South 3.5 mph - N/A   Unknown
5:55 PM 69.8 °F - 46.4 °F 43% 30.00 in 10.0 mi SSW 4.6 mph - N/A   Unknown
6:15 PM 69.8 °F - 48.2 °F 46% 29.99 in 10.0 mi South 9.2 mph - N/A   Unknown
6:35 PM 68.0 °F - 46.4 °F 46% 29.99 in 10.0 mi SSE 6.9 mph - N/A   Unknown
6:55 PM 68.0 °F - 48.2 °F 49% 29.98 in 10.0 mi SSE 8.1 mph - N/A   Unknown
7:15 PM 66.2 °F - 46.4 °F 49% 29.98 in 10.0 mi South 10.4 mph - N/A   Unknown
7:35 PM 66.2 °F - 46.4 °F 49% 29.98 in 10.0 mi SSE 6.9 mph - N/A   Unknown
7:55 PM 64.4 °F - 46.4 °F 52% 29.97 in 10.0 mi SSE 8.1 mph - N/A   Unknown
8:15 PM 64.4 °F - 46.4 °F 52% 29.97 in 10.0 mi SSE 5.8 mph - N/A   Unknown
8:35 PM 62.6 °F - 44.6 °F 52% 29.97 in 10.0 mi SSE 9.2 mph - N/A   Unknown
8:55 PM 62.6 °F - 44.6 °F 52% 29.97 in 10.0 mi SSE 6.9 mph - N/A   Unknown
9:15 PM 60.8 °F - 44.6 °F 55% 29.98 in 10.0 mi SSE 8.1 mph - N/A   Unknown
9:35 PM 60.8 °F - 44.6 °F 55% 29.98 in 10.0 mi SSE 6.9 mph - N/A   Unknown
9:55 PM 60.8 °F - 44.6 °F 55% 29.98 in 10.0 mi SSE 6.9 mph - N/A   Unknown
10:15 PM 59.0 °F - 44.6 °F 59% 29.98 in 10.0 mi SSE 5.8 mph - N/A   Unknown
10:35 PM 57.2 °F - 44.6 °F 63% 29.98 in 10.0 mi SSE 9.2 mph - N/A   Unknown
10:55 PM 57.2 °F - 44.6 °F 63% 29.99 in 10.0 mi SSE 10.4 mph - N/A   Unknown
11:15 PM 55.4 °F - 44.6 °F 67% 29.99 in 10.0 mi SSE 8.1 mph - N/A   Unknown
11:35 PM 53.6 °F - 44.6 °F 72% 29.99 in 10.0 mi SSE 9.2 mph - N/A   Unknown
11:55 PM 53.6 °F - 44.6 °F 72% 29.98 in 10.0 mi South 10.4 mph 16.1 mph N/A   Unknown